Home   Weather   Palikir   Past weeks

Flag for Micronesia Past Weather in Palikir, Pohnpei, Micronesia — Yesterday and Last 2 Weeks

Now
85 °F

Partly sunny.


Feels Like: 90 °F
Forecast: 81 / 86 °F
Wind: 10 mph from East

Location: Pohnpei

Current Time: Jan 19, 2017 at 5:28:41 pm

Latest Report: Jan 19, 2017 at 4:52 pm


Visibility: 15 mi

Pressure: 29.83 "Hg

Humidity: 63%

Dew Point: 71 °F

Location of PalikirLocation

Past Weather in Palikir — Graph

°F

Palikir Temperature Yesterday

Maximum temperature yesterday: 87 °F (at 2:52 pm)
Minimum temperature yesterday: 77 °F (at 2:50 am)
Average temperature yesterday: 82 °F

High & Low Weather Summary for the Past Weeks

 TemperatureHumidityPressure
High91 °F (Jan 16, 2:50 pm)100% (Jan 6, 12:39 am)29.96 "Hg (Jan 6, 12:39 am)
Low74 °F (Jan 11, 3:50 am)51% (Jan 16, 12:50 pm)29.65 "Hg (Jan 7, 3:35 pm)
Average81 °F85%29.81 "Hg
* Reported Jan 4 3:50 pm — Jan 19 3:52 pm, Palikir, Weather by CustomWeather, © 2017

Note: Actual official high and low records may vary slightly from our data, if they occured in-between our weather recording intervals... More about our weather records

Advertising

Palikir Weather History for the Previous 24 Hours

Scroll right to see more
 ConditionsComfort  
Time TempWeatherWind HumidityBarometerVisibility
3:52 pm
Thu, Jan 19
87 °FPartly sunny.8 mph61%29.82 "Hg15 mi
2:50 pm87 °FScattered clouds.6 mph62%29.83 "Hg15 mi
1:50 pm86 °FPartly sunny.9 mph63%29.85 "Hg15 mi
12:50 pm87 °FBroken clouds.15 mph68%29.87 "Hg15 mi
11:50 am87 °FPartly sunny.18 mph64%29.90 "Hg15 mi
10:50 am86 °FBroken clouds.8 mph67%29.90 "Hg15 mi
9:50 am85 °FScattered clouds.13 mph65%29.91 "Hg15 mi
8:51 am85 °FScattered clouds.7 mph63%29.91 "Hg15 mi
7:52 am83 °FBroken clouds.14 mph76%29.90 "Hg15 mi
2:53 am82 °FPassing clouds.9 mph68%29.85 "Hg15 mi
1:53 am82 °FPassing clouds.7 mph68%29.88 "Hg15 mi
12:53 am81 °FPassing clouds.9 mph75%29.90 "Hg15 mi
11:53 pm
Wed, Jan 18
82 °FPassing clouds.9 mph69%29.90 "Hg15 mi
10:53 pm83 °FPassing clouds.12 mph66%29.90 "Hg15 mi
9:54 pm82 °FPassing clouds.9 mph68%29.91 "Hg15 mi
8:51 pm82 °FPassing clouds.13 mph70%29.91 "Hg15 mi
7:55 pm82 °FPassing clouds.9 mph72%29.90 "Hg15 mi
6:58 pm83 °FPassing clouds.12 mph69%29.88 "Hg15 mi
5:53 pm83 °FBroken clouds.10 mph77%29.86 "Hg15 mi
Weather by CustomWeather, © 2017

See weather overviewHow to use our weather pages